Time,TemperatureF,DewpointF,PressureIn,WindDirection,WindDirectionDegrees,WindSpeedMPH,WindSpeedGustMPH,Humidity,HourlyPrecipIn,Conditions,Clouds,dailyrainin,SoftwareType,DateUTC
2015-07-02 00:03:00,58.0,58.0,-100.00,ESE,121,1.0,2.0,100,-99.99,,,-99.99,,2015-07-02 04:03:00,
2015-07-02 00:13:00,59.0,59.0,-100.00,ESE,109,2.0,4.0,100,-99.99,,,-99.99,,2015-07-02 04:13:00,
2015-07-02 00:23:00,60.0,60.0,-100.00,SE,131,0.0,2.0,100,-99.99,,,-99.99,,2015-07-02 04:23:00,
2015-07-02 00:34:00,60.0,60.0,-100.00,South,169,2.0,3.0,100,-99.99,,,-99.99,,2015-07-02 04:34:00,
2015-07-02 00:43:00,60.0,60.0,-100.00,East,89,1.0,3.0,100,-99.99,,,-99.99,,2015-07-02 04:43:00,
2015-07-02 00:54:00,60.0,60.0,-100.00,East,93,1.0,2.0,100,-99.99,,,-99.99,,2015-07-02 04:54:00,
2015-07-02 01:03:00,59.0,59.0,-100.00,ENE,61,0.0,1.0,100,-99.99,,,-99.99,,2015-07-02 05:03:00,
2015-07-02 01:13:00,59.0,59.0,-100.00,SE,136,1.0,1.0,100,-99.99,,,-99.99,,2015-07-02 05:13:00,
2015-07-02 01:24:00,60.0,60.0,-100.00,ESE,121,0.0,1.0,100,-99.99,,,-99.99,,2015-07-02 05:24:00,
2015-07-02 01:33:00,61.0,61.0,-100.00,NW,309,2.0,5.0,100,-99.99,,,-99.99,,2015-07-02 05:33:00,
2015-07-02 01:43:00,62.0,62.0,-100.00,WNW,291,1.0,2.0,100,-99.99,,,-99.99,,2015-07-02 05:43:00,
2015-07-02 01:53:00,62.0,62.0,-100.00,NW,311,2.0,4.0,100,-99.99,,,-99.99,,2015-07-02 05:53:00,
2015-07-02 02:03:00,62.0,62.0,-100.00,WNW,296,2.0,3.0,100,-99.99,,,-99.99,,2015-07-02 06:03:00,
2015-07-02 02:13:00,62.0,62.0,-100.00,NW,304,2.0,4.0,100,-99.99,,,-99.99,,2015-07-02 06:13:00,
2015-07-02 02:23:00,62.0,62.0,-100.00,NW,326,1.0,2.0,100,-99.99,,,-99.99,,2015-07-02 06:23:00,
2015-07-02 02:33:00,62.0,62.0,-100.00,NW,319,1.0,3.0,100,-99.99,,,-99.99,,2015-07-02 06:33:00,
2015-07-02 02:44:00,62.0,62.0,-100.00,NNW,340,2.0,4.0,100,-99.99,,,-99.99,,2015-07-02 06:44:00,
2015-07-02 02:53:00,62.0,62.0,-100.00,NE,47,0.0,3.0,100,-99.99,,,-99.99,,2015-07-02 06:53:00,
2015-07-02 03:03:00,61.0,61.0,-100.00,NNW,332,1.0,2.0,100,-99.99,,,-99.99,,2015-07-02 07:03:00,
2015-07-02 03:13:00,62.0,62.0,-100.00,NW,315,2.0,5.0,100,-99.99,,,-99.99,,2015-07-02 07:13:00,
2015-07-02 03:23:00,62.0,62.0,-100.00,NW,319,1.0,3.0,100,-99.99,,,-99.99,,2015-07-02 07:23:00,
2015-07-02 03:33:00,61.0,61.0,-100.00,NW,325,1.0,2.0,100,-99.99,,,-99.99,,2015-07-02 07:33:00,
2015-07-02 03:43:00,61.0,61.0,-100.00,NW,309,1.0,2.0,100,-99.99,,,-99.99,,2015-07-02 07:43:00,
2015-07-02 03:53:00,61.0,61.0,-100.00,WNW,292,2.0,3.0,100,-99.99,,,-99.99,,2015-07-02 07:53:00,
2015-07-02 04:03:00,61.0,61.0,-100.00,NW,305,1.0,2.0,100,-99.99,,,-99.99,,2015-07-02 08:03:00,
2015-07-02 04:12:00,61.0,61.0,-100.00,West,265,2.0,4.0,100,-99.99,,,-99.99,,2015-07-02 08:12:00,
2015-07-02 04:23:00,60.0,60.0,-100.00,WNW,296,1.0,3.0,100,-99.99,,,-99.99,,2015-07-02 08:23:00,
2015-07-02 04:33:00,60.0,60.0,-100.00,WSW,243,1.0,2.0,100,-99.99,,,-99.99,,2015-07-02 08:33:00,
2015-07-02 04:43:00,59.0,59.0,-100.00,ESE,109,1.0,1.0,100,-99.99,,,-99.99,,2015-07-02 08:43:00,
2015-07-02 04:53:00,59.0,59.0,-100.00,West,263,1.0,2.0,100,-99.99,,,-99.99,,2015-07-02 08:53:00,
2015-07-02 05:03:00,59.0,59.0,-100.00,SSW,196,0.0,3.0,100,-99.99,,,-99.99,,2015-07-02 09:03:00,
2015-07-02 05:13:00,59.0,59.0,-100.00,North,356,0.0,2.0,100,-99.99,,,-99.99,,2015-07-02 09:13:00,
2015-07-02 05:23:00,59.0,59.0,-100.00,North,350,1.0,2.0,100,-99.99,,,-99.99,,2015-07-02 09:23:00,
2015-07-02 05:33:00,59.0,59.0,-100.00,NNW,339,0.0,1.0,100,-99.99,,,-99.99,,2015-07-02 09:33:00,
2015-07-02 05:43:00,59.0,59.0,-100.00,WNW,287,0.0,1.0,100,-99.99,,,-99.99,,2015-07-02 09:43:00,
2015-07-02 05:53:00,59.0,59.0,-100.00,North,10,0.0,2.0,100,-99.99,,,-99.99,,2015-07-02 09:53:00,
2015-07-02 06:03:00,60.0,60.0,-100.00,NNW,329,0.0,1.0,100,-99.99,,,-99.99,,2015-07-02 10:03:00,
2015-07-02 06:13:00,60.0,60.0,-100.00,North,3,2.0,3.0,100,-99.99,,,-99.99,,2015-07-02 10:13:00,
2015-07-02 06:24:00,61.0,61.0,-100.00,WNW,284,1.0,5.0,100,-99.99,,,-99.99,,2015-07-02 10:24:00,
2015-07-02 06:33:00,60.0,60.0,-100.00,West,281,1.0,4.0,100,-99.99,,,-99.99,,2015-07-02 10:33:00,
2015-07-02 06:43:00,61.0,61.0,-100.00,NW,316,1.0,3.0,99,-99.99,,,-99.99,,2015-07-02 10:43:00,
2015-07-02 06:53:00,62.0,62.0,-100.00,NW,309,2.0,4.0,98,-99.99,,,-99.99,,2015-07-02 10:53:00,
2015-07-02 07:03:00,63.0,62.0,-100.00,WNW,299,1.0,2.0,97,-99.99,,,-99.99,,2015-07-02 11:03:00,
2015-07-02 07:13:00,64.0,62.0,-100.00,West,272,1.0,3.0,95,-99.99,,,-99.99,,2015-07-02 11:13:00,
2015-07-02 07:23:00,64.0,63.0,-100.00,West,278,2.0,4.0,94,-99.99,,,-99.99,,2015-07-02 11:23:00,
2015-07-02 07:33:00,65.0,62.0,-100.00,NE,52,2.0,3.0,92,-99.99,,,-99.99,,2015-07-02 11:33:00,
2015-07-02 07:44:00,65.0,62.0,-100.00,WNW,284,2.0,3.0,91,-99.99,,,-99.99,,2015-07-02 11:44:00,
2015-07-02 07:53:00,66.0,63.0,-100.00,NW,319,2.0,7.0,91,-99.99,,,-99.99,,2015-07-02 11:53:00,
2015-07-02 08:03:00,66.0,63.0,-100.00,WNW,301,3.0,5.0,90,-99.99,,,-99.99,,2015-07-02 12:03:00,
2015-07-02 08:13:00,66.0,63.0,-100.00,NW,315,2.0,6.0,90,-99.99,,,-99.99,,2015-07-02 12:13:00,
2015-07-02 08:23:00,67.0,63.0,-100.00,WNW,291,2.0,6.0,87,-99.99,,,-99.99,,2015-07-02 12:23:00,
2015-07-02 08:33:00,68.0,63.0,-100.00,NW,320,3.0,10.0,83,-99.99,,,-99.99,,2015-07-02 12:33:00,
2015-07-02 08:43:00,69.0,63.0,-100.00,NNW,333,2.0,6.0,81,-99.99,,,-99.99,,2015-07-02 12:43:00,
2015-07-02 08:53:00,69.0,64.0,-100.00,NW,308,3.0,6.0,84,-99.99,,,-99.99,,2015-07-02 12:53:00,
2015-07-02 09:03:00,70.0,62.0,-100.00,West,277,3.0,5.0,77,-99.99,,,-99.99,,2015-07-02 13:03:00,
2015-07-02 09:13:00,70.0,62.0,-100.00,WNW,299,4.0,6.0,76,-99.99,,,-99.99,,2015-07-02 13:13:00,
2015-07-02 09:26:00,71.0,64.0,-100.00,NNW,330,3.0,7.0,80,-99.99,,,-99.99,,2015-07-02 13:26:00,
2015-07-02 09:33:00,71.0,60.0,-100.00,WNW,288,4.0,9.0,70,-99.99,,,-99.99,,2015-07-02 13:33:00,
2015-07-02 09:43:00,69.0,60.0,-100.00,NNW,339,2.0,6.0,73,-99.99,,,-99.99,,2015-07-02 13:43:00,
2015-07-02 09:53:00,69.0,60.0,-100.00,NNW,339,2.0,6.0,73,-99.99,,,-99.99,,2015-07-02 13:53:00,
2015-07-02 10:03:00,71.0,61.0,-100.00,WSW,258,4.0,7.0,69,-99.99,,,-99.99,,2015-07-02 14:03:00,
2015-07-02 10:13:00,72.0,61.0,-100.00,NW,316,3.0,7.0,70,-99.99,,,-99.99,,2015-07-02 14:13:00,
2015-07-02 10:23:00,71.0,60.0,-100.00,NW,308,2.0,4.0,67,-99.99,,,-99.99,,2015-07-02 14:23:00,
2015-07-02 10:43:00,71.0,58.0,-100.00,NW,316,3.0,6.0,63,-99.99,,,-99.99,,2015-07-02 14:43:00,
2015-07-02 10:53:00,72.0,59.0,-100.00,WNW,301,4.0,9.0,65,-99.99,,,-99.99,,2015-07-02 14:53:00,
2015-07-02 11:03:00,72.0,58.0,-100.00,NNW,329,3.0,6.0,60,-99.99,,,-99.99,,2015-07-02 15:03:00,
2015-07-02 11:13:00,73.0,59.0,-100.00,NW,323,3.0,7.0,60,-99.99,,,-99.99,,2015-07-02 15:13:00,
2015-07-02 11:23:00,71.0,59.0,-100.00,NW,318,4.0,8.0,64,-99.99,,,-99.99,,2015-07-02 15:23:00,
2015-07-02 11:33:00,72.0,58.0,-100.00,NNW,330,3.0,5.0,60,-99.99,,,-99.99,,2015-07-02 15:33:00,
2015-07-02 11:43:00,72.0,58.0,-100.00,NNW,330,3.0,5.0,60,-99.99,,,-99.99,,2015-07-02 15:43:00,
2015-07-02 11:53:00,73.0,55.0,-100.00,WNW,295,4.0,9.0,52,-99.99,,,-99.99,,2015-07-02 15:53:00,
2015-07-02 12:03:00,74.0,56.0,-100.00,West,277,4.0,9.0,53,-99.99,,,-99.99,,2015-07-02 16:03:00,
2015-07-02 12:13:00,74.0,56.0,-100.00,NW,311,4.0,6.0,54,-99.99,,,-99.99,,2015-07-02 16:13:00,
2015-07-02 12:23:00,75.0,56.0,-100.00,NW,316,3.0,7.0,52,-99.99,,,-99.99,,2015-07-02 16:23:00,
2015-07-02 12:33:00,75.0,56.0,-100.00,WNW,301,4.0,8.0,53,-99.99,,,-99.99,,2015-07-02 16:33:00,
2015-07-02 12:43:00,74.0,53.0,-100.00,NW,325,4.0,6.0,48,-99.99,,,-99.99,,2015-07-02 16:43:00,
2015-07-02 12:53:00,76.0,54.0,-100.00,West,275,2.0,5.0,48,-99.99,,,-99.99,,2015-07-02 16:53:00,
2015-07-02 13:04:00,75.0,56.0,-100.00,NNW,332,3.0,5.0,52,-99.99,,,-99.99,,2015-07-02 17:04:00,
2015-07-02 13:13:00,76.0,55.0,-100.00,NW,305,3.0,11.0,49,-99.99,,,-99.99,,2015-07-02 17:13:00,
2015-07-02 13:24:00,75.0,53.0,-100.00,NNW,329,5.0,9.0,46,-99.99,,,-99.99,,2015-07-02 17:24:00,
2015-07-02 13:34:00,75.0,52.0,-100.00,WNW,296,5.0,11.0,45,-99.99,,,-99.99,,2015-07-02 17:34:00,